Tracking 19564 objects as of 19-Mar-2019
HD Live streaming from Space Station
objects crossing your sky now

FENGYUN 1C DEB

Track FENGYUN 1C DEB now!
10-day predictions


NORAD ID: 30342
Int'l Code: 1999-025ABD
Perigee: 855.0 km
Apogee: 1,111.6 km
Inclination: 100.2 °
Period: 104.6 minutes
Semi major axis: 7354 km
RCS: 0.0538 m2 (small)
Launch date: May 10, 1999
Source: People's Republic of China (PRC)
Launch site: Taiyaun Space Center, China (TSC)

Note: This is SATELLITE DEBRIS
aabbcc
Your satellite tracking list
Your tracking list is empty




NASA's NSSDC Master Catalog

Two Line Element Set (TLE):
1 30342U 99025ABD 19077.44813557 +.00000210 +00000-0 +23886-3 0  9991
2 30342 100.1847 054.2660 0174446 308.4128 178.1938 13.76558344609996
Source of the keplerian elements: AFSPC